When you browse on this site, cookies collect data to enhance your experience and personalize the content and advertising you see.
Visit our Privacy Policy to learn more. By continuing to use the site, you agree to this use of cookies and data.
  • In Romania
  • List of Countries
  • For 7 days
  • Water Temperature
  • Satellite Maps
  • Weather Map
  • Weather Widgets
  • user-avatar
    Login

    Hourly Weather Ozerki

    Today, 21 May, Tuesday

    Time Temperature Precipitation Wind Pressure Humidity
    00:00 +4°C° 0 mm 3 mps 757 mmHg 75%
    01:00 +4°C° 0 mm 3 mps 757 mmHg 76%
    02:00 +4°C° 0 mm 3 mps 757 mmHg 78%
    03:00 +3°C° 0 mm 3 mps 758 mmHg 80%
    04:00 +4°C° 0 mm 3 mps 758 mmHg 76%
    05:00 +6°C° 0 mm 4 mps 758 mmHg 73%
    06:00 +7°C° 0 mm 4 mps 758 mmHg 70%
    07:00 +8°C° 0 mm 4 mps 759 mmHg 62%
    08:00 +10°C° 0 mm 5 mps 759 mmHg 55%
    09:00 +12°C° 0 mm 5 mps 759 mmHg 47%
    10:00 +13°C° 0 mm 5 mps 759 mmHg 46%
    11:00 +13°C° 0 mm 5 mps 759 mmHg 45%
    12:00 +13°C° 0 mm 4 mps 759 mmHg 44%
    13:00 +14°C° 0 mm 5 mps 759 mmHg 43%
    14:00 +14°C° 0 mm 5 mps 759 mmHg 42%
    15:00 +15°C° 0 mm 5 mps 759 mmHg 41%
    16:00 +15°C° 0 mm 4 mps 759 mmHg 45%
    17:00 +14°C° 0 mm 3 mps 758 mmHg 48%
    18:00 +15°C° 0 mm 2 mps 758 mmHg 52%
    19:00 +13°C° 0 mm 2 mps 758 mmHg 54%
    20:00 +12°C° 0 mm 2 mps 759 mmHg 57%
    21:00 +9°C° 0 mm 2 mps 759 mmHg 59%
    22:00 +9°C° 0 mm 2 mps 759 mmHg 60%
    23:00 +9°C° 0 mm 2 mps 759 mmHg 62%

    Tomorrow, 22 May, Wednesday

    Time Temperature Precipitation Wind Pressure Humidity
    00:00 +8°C° 0 mm 2 mps 759 mmHg 64%
    01:00 +8°C° 0 mm 2 mps 759 mmHg 65%
    02:00 +7°C° 0 mm 2 mps 759 mmHg 67%
    03:00 +7°C° 0 mm 2 mps 759 mmHg 68%
    04:00 +8°C° 0 mm 2 mps 758 mmHg 67%
    05:00 +9°C° 0 mm 2 mps 758 mmHg 66%
    06:00 +10°C° 0 mm 2 mps 758 mmHg 66%
    07:00 +12°C° 0.2 mm 2 mps 758 mmHg 67%
    08:00 +12°C° 0.2 mm 2 mps 757 mmHg 68%
    09:00 +13°C° 0.2 mm 1 mps 757 mmHg 69%
    10:00 +13°C° 0.8 mm 2 mps 757 mmHg 73%
    11:00 +13°C° 0.8 mm 2 mps 756 mmHg 77%
    12:00 +11°C° 0.8 mm 3 mps 756 mmHg 82%
    13:00 +13°C° 0.4 mm 3 mps 756 mmHg 78%
    14:00 +14°C° 0.4 mm 3 mps 755 mmHg 75%
    15:00 +16°C° 0.4 mm 3 mps 755 mmHg 72%
    16:00 +16°C° 0.3 mm 2 mps 754 mmHg 73%
    17:00 +17°C° 0.3 mm 2 mps 754 mmHg 74%
    18:00 +18°C° 0.3 mm 1 mps 753 mmHg 74%
    19:00 +16°C° 0.2 mm 2 mps 753 mmHg 76%
    20:00 +16°C° 0.2 mm 3 mps 753 mmHg 78%
    21:00 +14°C° 0.2 mm 4 mps 753 mmHg 79%
    22:00 +14°C° 0 mm 4 mps 753 mmHg 78%
    23:00 +13°C° 0 mm 4 mps 753 mmHg 77%

    Day after tomorrow, 23 May, Thursday

    Time Temperature Precipitation Wind Pressure Humidity
    00:00 +13°C° 0 mm 5 mps 753 mmHg 77%
    01:00 +13°C° 0 mm 5 mps 752 mmHg 77%
    02:00 +12°C° 0 mm 5 mps 752 mmHg 77%
    03:00 +12°C° 0 mm 5 mps 752 mmHg 78%
    04:00 +13°C° 0 mm 5 mps 752 mmHg 76%
    05:00 +14°C° 0 mm 5 mps 752 mmHg 74%
    06:00 +14°C° 0 mm 5 mps 752 mmHg 71%
    07:00 +16°C° 0 mm 6 mps 752 mmHg 66%
    08:00 +18°C° 0 mm 7 mps 751 mmHg 61%
    09:00 +21°C° 0 mm 7 mps 751 mmHg 56%
    10:00 +22°C° 0 mm 7 mps 751 mmHg 51%
    11:00 +23°C° 0 mm 8 mps 751 mmHg 47%
    12:00 +23°C° 0 mm 8 mps 750 mmHg 42%
    13:00 +23°C° 0 mm 8 mps 750 mmHg 42%
    14:00 +23°C° 0 mm 8 mps 749 mmHg 42%
    15:00 +24°C° 0 mm 8 mps 749 mmHg 41%
    16:00 +23°C° 0 mm 7 mps 749 mmHg 46%
    17:00 +22°C° 0 mm 6 mps 748 mmHg 51%
    18:00 +21°C° 0 mm 5 mps 748 mmHg 56%
    19:00 +20°C° 0 mm 5 mps 748 mmHg 56%
    20:00 +19°C° 0 mm 6 mps 748 mmHg 56%
    21:00 +17°C° 0 mm 6 mps 748 mmHg 56%
    22:00 +16°C° 0 mm 6 mps 748 mmHg 55%
    23:00 +16°C° 0 mm 6 mps 748 mmHg 54%

    24 May, Friday

    Time Temperature Precipitation Wind Pressure Humidity
    00:00 +16°C° 0 mm 6 mps 748 mmHg 54%
    01:00 +15°C° 0.4 mm 5 mps 748 mmHg 63%
    02:00 +14°C° 0.4 mm 5 mps 748 mmHg 72%
    03:00 +14°C° 0.4 mm 4 mps 749 mmHg 81%
    04:00 +13°C° 0.2 mm 4 mps 749 mmHg 82%
    05:00 +12°C° 0.2 mm 5 mps 750 mmHg 82%
    06:00 +10°C° 0.2 mm 5 mps 750 mmHg 83%
    07:00 +12°C° 0 mm 5 mps 751 mmHg 77%
    08:00 +13°C° 0 mm 5 mps 751 mmHg 71%
    09:00 +14°C° 0 mm 5 mps 752 mmHg 65%
    10:00 +15°C° 0 mm 5 mps 752 mmHg 58%
    11:00 +16°C° 0 mm 5 mps 753 mmHg 52%
    12:00 +17°C° 0 mm 5 mps 753 mmHg 46%
    13:00 +17°C° 0 mm 5 mps 753 mmHg 45%
    14:00 +18°C° 0 mm 4 mps 753 mmHg 45%
    15:00 +18°C° 0 mm 4 mps 753 mmHg 44%
    16:00 +17°C° 0 mm 4 mps 754 mmHg 48%
    17:00 +15°C° 0 mm 4 mps 754 mmHg 51%
    18:00 +16°C° 0 mm 3 mps 754 mmHg 54%
    19:00 +13°C° 0 mm 3 mps 755 mmHg 58%
    20:00 +11°C° 0 mm 3 mps 755 mmHg 62%
    21:00 +10°C° 0 mm 3 mps 755 mmHg 67%
    22:00 +9°C° 0 mm 3 mps 756 mmHg 68%
    23:00 +9°C° 0 mm 3 mps 756 mmHg 70%

    25 May, Saturday

    Time Temperature Precipitation Wind Pressure Humidity
    00:00 +8°C° 0 mm 3 mps 756 mmHg 72%
    01:00 +8°C° 0 mm 3 mps 756 mmHg 73%
    02:00 +7°C° 0 mm 3 mps 756 mmHg 74%
    03:00 +7°C° 0 mm 2 mps 757 mmHg 74%
    04:00 +8°C° 0 mm 3 mps 757 mmHg 72%
    05:00 +9°C° 0 mm 3 mps 757 mmHg 70%
    06:00 +10°C° 0 mm 3 mps 757 mmHg 68%
    07:00 +12°C° 0 mm 3 mps 757 mmHg 63%
    08:00 +14°C° 0 mm 4 mps 757 mmHg 57%
    09:00 +15°C° 0 mm 4 mps 757 mmHg 52%
    10:00 +18°C° 0 mm 4 mps 757 mmHg 48%
    11:00 +19°C° 0 mm 3 mps 757 mmHg 45%
    12:00 +20°C° 0 mm 3 mps 757 mmHg 41%
    13:00 +20°C° 0 mm 4 mps 756 mmHg 41%
    14:00 +21°C° 0 mm 4 mps 756 mmHg 41%
    15:00 +21°C° 0 mm 4 mps 756 mmHg 41%
    16:00 +21°C° 0 mm 4 mps 755 mmHg 46%
    17:00 +20°C° 0 mm 3 mps 755 mmHg 51%
    18:00 +20°C° 0 mm 3 mps 755 mmHg 56%
    19:00 +18°C° 0 mm 3 mps 755 mmHg 59%
    20:00 +17°C° 0 mm 4 mps 755 mmHg 62%
    21:00 +14°C° 0 mm 4 mps 755 mmHg 65%
    22:00 +14°C° 0 mm 4 mps 755 mmHg 64%
    23:00 +13°C° 0 mm 4 mps 754 mmHg 63%

    26 May, Sunday

    Time Temperature Precipitation Wind Pressure Humidity
    00:00 +13°C° 0 mm 5 mps 754 mmHg 62%
    01:00 +13°C° 0.2 mm 5 mps 754 mmHg 64%
    02:00 +12°C° 0.2 mm 5 mps 754 mmHg 66%
    03:00 +12°C° 0.2 mm 5 mps 754 mmHg 69%
    04:00 +13°C° 0 mm 5 mps 753 mmHg 68%
    05:00 +14°C° 0 mm 5 mps 753 mmHg 68%
    06:00 +15°C° 0 mm 6 mps 753 mmHg 67%
    07:00 +16°C° 0 mm 6 mps 752 mmHg 63%
    08:00 +19°C° 0 mm 6 mps 752 mmHg 60%
    09:00 +21°C° 0 mm 6 mps 752 mmHg 56%
    10:00 +22°C° 0 mm 7 mps 751 mmHg 53%
    11:00 +24°C° 0 mm 7 mps 751 mmHg 51%
    12:00 +27°C° 0 mm 8 mps 751 mmHg 48%
    13:00 +24°C° 0.1 mm 7 mps 751 mmHg 52%
    14:00 +23°C° 0.1 mm 6 mps 750 mmHg 56%
    15:00 +22°C° 0.1 mm 6 mps 750 mmHg 61%
    16:00 +22°C° 0.7 mm 5 mps 749 mmHg 62%
    17:00 +22°C° 0.7 mm 5 mps 749 mmHg 63%
    18:00 +22°C° 0.7 mm 4 mps 748 mmHg 65%
    19:00 +21°C° 1 mm 5 mps 748 mmHg 68%
    20:00 +21°C° 1 mm 6 mps 748 mmHg 72%
    21:00 +20°C° 1 mm 7 mps 748 mmHg 75%
    22:00 +20°C° 0.1 mm 7 mps 748 mmHg 77%
    23:00 +18°C° 0.1 mm 7 mps 748 mmHg 79%
    Show more